Regional Weather Roundup
Issued by NWS Newport/Morehead, NC

Current Version | Previous Version | Graphics & Text | Print | Product List | Glossary Off
Versions: 1 2 3 4 5 6 7 8 9 10 11 12 13 14 15 16 17 18 19 20 21 22 23 24 25 26 27 28 29 30 31 32 33 34 35 36 37 38 39 40 41 42 43 44 45 46 47 48 49 50

000
ASUS42 KMHX 230310
RWRMHX
WEATHER ROUNDUP FOR EASTERN NORTH CAROLINA
NATIONAL WEATHER SERVICE NEWPORT/MOREHEAD CITY NC
1100 PM EDT TUE JUL 22 2014

NOTE: "FAIR" INDICATES FEW OR NO CLOUDS BELOW 12,000 FEET
WITH NO SIGNIFICANT WEATHER AND/OR OBSTRUCTIONS TO VISIBILITY

NCZ015>017-031-032-045>047-102-103-230400-
NORTH COAST

CITY           SKY/WX    TMP DP  RH WIND       PRES   REMARKS
EDENTON        PTCLDY    76  74  96 S5        30.10S
ELIZABETH CITY PTCLDY    74  73  97 CALM      30.10S
KITTY HAWK     PTCLDY    76  74  92 S3        30.09F
MANTEO         NOT AVBL

$$

NCZ045>047-081-094-103-104-230400-
CENTRAL COAST

CITY           SKY/WX    TMP DP  RH WIND       PRES   REMARKS
FRISCO         MOCLDY    78  75  90 SW6       30.11F
SWANQUARTER      N/A     77 N/A N/A SW8G16    30.06S

$$

NCZ095-097-098-100-101-230400-
SOUTHERN COAST

CITY           SKY/WX    TMP DP  RH WIND       PRES   REMARKS
BEAUFORT       MOCLDY    79  73  82 S14       30.10F
CEDAR ISLAND     N/A     77 N/A N/A S7G13     30.15S
JACKSONVILLE   MOCLDY    76  74  93 CALM      30.10R
NEWPORT        NOT AVBL
PINEY ISLAND   CLOUDY    77  76  96 S8        30.10F
WILMINGTON     MOCLDY    77  74  90 S3        30.10S


$$

NCZ011>013-027>030-043-044-078>080-089-090>093-098-230400-
COASTAL PLAIN

CITY           SKY/WX    TMP DP  RH WIND       PRES   REMARKS
AHOSKIE        PTCLDY    72  70  95 CALM      30.11R
CLINTON        CLOUDY    78  76  94 CALM      30.11R
ELIZABETHTOWN  MOCLDY    77  75  95 CALM      30.11R
GOLDSBORO      CLOUDY    76  76  99 SE2       30.08S
GREENVILLE     MOCLDY    77  75  94 CALM      30.11S
HAVELOCK       MOCLDY    76  73  91 S5        30.11S
KENANSVILLE    CLOUDY    75  73  94 CALM      30.11S
KINSTON        CLOUDY    76  75  95 CALM      30.11R
NEW BERN       NOT AVBL
RICHLANDS      MOCLDY    75  72  88 S5        30.11R
ROANOKE RAPIDS NOT AVBL
ROCKY MOUNT    PTCLDY    73  72  96 CALM      30.10S
WASHINGTON     MOCLDY    74  73  96 CALM      30.11R
WHITEVILLE     PTCLDY    76  74  93 CALM      30.10S

$$

AMZ130-135-150-152-154-156-158-170-250-252-270-ANZ085-086-088-633-658-670-230400-
MARINE OBSERVATIONS

STATION/POSITION TIME  TEMP    WIND        PRES    WAVE   SWELL
                       AIR SEA DIR/SP/G            HT/PER HT/PER
                 (UTC) (F)     (DEG/KT/KT) (MB)    (FT/S) (FT/S)
CHESAPEAKE LIGHT NOT AVBL
BUOY 44014       0300   77 78  180/  8/ 10 1019.1    2/ 8   2/ 8
DUCK             0300   78 73  190/  8/ 12 1018.5
2E DUCK          0200                        N/A     2/ 8
OREGON INLET     0300   78 80  190/ 11/ 14 1019.5
BUOY 44095       0300      78                N/A     3/ 5
20E OREGON INLET NOT AVBL
HATTERAS CG      0300   78 82  200/  5/  9 1020.1
DIAMOND BUOY     0300          VRB 17/ 19  1019.4    4/ 8   2/ 8
CAPE LOOKOUT     0200   79     190/ 15/ 17 1019.5
BEAUFORT LAB     0300   79 80  200/ 12/ 17 1019.1
30 SE NEW RIVER  0300   80 81  220/ 12/ 14 1019.8    4/ 6   3/ 6
5 SE WRIGHTSVILL 0200   76 81  190/ 14/ 16   N/A
BUOY 41002       0250   81 82  190/ 12/ 14 1021.7    3/ 8   3/ 8
BUOY 41004       0300   81 82  160/ 10/ 12 1018.7    3/ 8   2/ 8

$$


USA.gov is the U.S. government's official web portal to all federal, state and local government web resources and services.